Location: Asheville, NC
(35.6000°N, 82.5500°W)
Time: 07:19:26
(UTC-04:00)

Vanguard 2 - Pass Details

Date: 14 December 2017
Orbit: 553 x 2939 km, 32.9° (Epoch: 19 July)

Event Time Altitude Azimuth Distance (km) Brightness Sun altitude
Rises 11:59:40 0° 199° (SSW) 6,143 13.0 30.8°
Reaches altitude 10° 12:06:41 10° 180° (S) 4,620 13.1 31.0°
Maximum altitude 12:12:27 15° 152° (SSE) 3,738 12.3 31.1°
Drops below altitude 10° 12:17:11 10° 122° (ESE) 3,636 11.5 31.1°
Sets 12:21:28 0° 99° (E) 4,158 11.4 31.1°
